Redwood City, CA (94063)

01:17 PM PST die 18o January, anno 2018 (GMT -0800)
Sterling Heights | | Change Station

Elev 134 ft 37.46 °N, 122.25 °W | Updated 4 minutes ago

Mostly Cloudy
Plerumque Nubila
63.3 °F
Feels Like 63.3 °F
N
0.0
Ventus Variabilis Ventus from Magis Auster quam Zephyrus
Gusts 5.0 mph

Hodie
High -- | Low -- °F
--% Chance of Precip.
Yesterday
High -- | Low -- °F
Precip. -- in
Pressio 30.04 in
Visibilitas 8.0 milia passuum
Clouds Plerumque Nubila 2200 ft
Frigus in quo Ros apparet 57.4 °F
Umor 81%
Rainfall 0.00 in
Snow Depth Not available.
7:21 AM 5:17 PM
Waxing Crescent, 3% visible
METAR KSQL 182055Z 20008KT 8SM BKN022 18/14 A3004
Pressio 30.04 in
Visibilitas 8.0 milia passuum
Clouds Plerumque Nubila 2200 ft
Frigus in quo Ros apparet 57.4 °F
Umor 81%
Rainfall 0.00 in
Snow Depth Not available.
7:21 AM 5:17 PM
Waxing Crescent, 3% visible
METAR KSQL 182055Z 20008KT 8SM BKN022 18/14 A3004

Get Severe Weather Alerts

Thanks for signing up!

Be on the lookout for a verification email in your inbox.

You'll start receiving the daily forecast at 6 AM.

×

10-Day Weather Forecast

Almanac

Astronomy

Jan. 18, 2018 Rise Set
Actual Time
Civil Twilight
Nautical Twilight
Astronomical Twilight
Moon
Length Of Visible Light
Length of Day
Tomorrow will be .
, % of the Moon is Illuminated

Today's Extremes

State Highs State Lows

Community

WunderPhotos

Category 6

Welcome to Category 6. This is the collective home for Weather Underground's featured writeups by Dr. Jeff Masters (right), Bob Henson (left), Chris Burt, and other regular contributors.

Nearby

Air Quality

  Air Quality AQ Index Pollutant
Not available.

Snow Depth

Station Depth Elevation

Earthquake Activity

City Distance Mag. Time & Date
Minimum magnitude displayed is 2.5.

Coastal Water Temperatures

Locus Calor

Stations

Nearby Weather Stations

Station Location Temp Frigus Venti Frigus in quo Ros apparet Umor Ventus Precip. Elev Renovata Type
                   

Watches & Warnings

There are currently no watches in effect.